This demonstration page uses our WeatherBlox Daily Observations layout. Learn more.

Left ArrowRight Arrow

40.92501, -98.34201

Hourly Observations for June 23, 2015

Temp ( °F °C ) Dew Point ( °F °C ) Humidity (%) Winds ( mph kmh ) Pressure ( in mb ) Visibility ( mi km ) Precip ( " mm )
12:53 am 00:53 Clear 59 15 52 11.1 78 78 N 9 15 30.09 1019 10 16 0.00 0.00
1:53 am 01:53 Clear 57 13.9 52 11.1 83 83 N 8 13 30.10 1019 10 16 0.00 0.00
2:53 am 02:53 Clear 57 13.9 51 10.6 81 81 SSE 3 6 30.14 1021 10 16 0.00 0.00
3:53 am 03:53 Clear 56 13.3 51 10.6 84 84 NE 3 6 30.13 1020 10 16 0.00 0.00
4:53 am 04:53 Clear 56 13.3 51 10.6 84 84 Calm 30.14 1021 10 16 0.00 0.00
5:53 am 05:53 Partly Cloudy 57 13.9 51 10.6 81 81 N 3 6 30.14 1021 10 16 0.00 0.00
6:53 am 06:53 Sunny 57 13.9 53 11.7 87 87 Calm 30.14 1021 10 16 0.00 0.00
7:53 am 07:53 Mostly Cloudy 63 17.2 54 12.2 73 73 Calm 30.16 1021 10 16 0.00 0.00
8:53 am 08:53 Sunny 68 20 56 13.3 65 65 ESE 6 9 30.16 1021 10 16 0.00 0.00
9:53 am 09:53 Cloudy 70 21.1 56 13.3 61 61 SE 8 13 30.17 1022 10 16 0.00 0.00
10:53 am 10:53 Cloudy 72 22.2 55 12.8 55 55 SE 9 15 30.17 1022 10 16 0.00 0.00
11:53 am 11:53 Cloudy 73 22.8 55 12.8 53 53 ESE 10 17 30.19 1022 10 16 0.00 0.00
12:53 pm 12:53 Cloudy 73 22.8 55 12.8 53 53 ESE 6 9 30.17 1022 10 16 0.00 0.00
1:53 pm 13:53 Cloudy 73 22.8 56 13.3 55 55 E 8 13 30.15 1021 10 16 0.00 0.00
2:17 pm 14:17 Cloudy 74 23.3 56 13.3 54 54 E 10 17 30.06 1018 10 16 0.00 0.00
2:53 pm 14:53 Cloudy 74 23.3 55 12.8 52 52 ESE 13 20 30.14 1021 10 16 0.00 0.00
3:53 pm 15:53 Cloudy 74 23.3 58 14.4 57 57 SE 9 15 30.13 1020 10 16 0.00 0.00
4:53 pm 16:53 Cloudy 72 22.2 57 13.9 59 59 SE 12 19 30.13 1020 10 16 0.00 0.00
5:53 pm 17:53 Cloudy 71 21.7 58 14.4 63 63 SE 9 15 30.13 1020 10 16 0.00 0.00
6:53 pm 18:53 Partly Cloudy 72 22.2 57 13.9 59 59 ESE 13 20 30.11 1020 10 16 0.00 0.00
7:53 pm 19:53 Sunny 70 21.1 55 12.8 59 59 E 10 17 30.09 1019 10 16 0.00 0.00
8:53 pm 20:53 Sunny 67 19.4 55 12.8 66 66 ESE 9 15 30.07 1018 10 16 0.00 0.00
9:53 pm 21:53 Mostly Cloudy 66 18.9 56 13.3 70 70 E 5 7 30.07 1018 10 16 0.00 0.00
10:53 pm 22:53 Mostly Clear 64 17.8 58 14.4 81 81 NE 7 11 30.06 1018 10 16 0.00 0.00
11:53 pm 23:53 Mostly Clear 62 16.7 59 15 90 90 ENE 6 9 30.06 1018 10 16 0.00 0.00

Powered by AerisWeather